{"data":{"norad_id":59477,"epoch":"2026-05-25T00:40:44.435712Z","epoch_age_seconds":69047,"freshness":"FRESH","line1":"1 59477U 24068Y   26145.02829208 -.00004027  00000+0 -13697-3 0  9994","line2":"2 59477  43.0016 268.2430 0001154 292.4395  67.6335 15.27562890120826","mean_motion":15.2756289,"eccentricity":0.0001154,"inclination_deg":43.0016,"raan_deg":268.243,"arg_perigee_deg":292.4395,"mean_anomaly_deg":67.6335,"bstar":-0.00013697,"rev_number":12082,"period_min":94.267804581191,"perigee_km":482.30854322527,"apogee_km":483.89211680104,"semimajor_km":6861.2373300132,"source":"CELESTRAK","updated_at":"2026-05-25T13:38:18.952215Z"}}